Time,TemperatureF,DewpointF,PressureIn,WindDirection,WindDirectionDegrees,WindSpeedMPH,WindSpeedGustMPH,Humidity,HourlyPrecipIn,Conditions,Clouds,dailyrainin,SoftwareType,DateUTC
2013-01-12 00:01:00,31.9,9.6,29.86,ESE,113,0.7,2.2,39,0.00,,,0.00,WUHU216HW,2013-01-12 07:01:00,
2013-01-12 00:06:00,31.5,9.4,29.87,SSE,158,0.9,1.3,39,0.00,,,0.00,WUHU216HW,2013-01-12 07:06:00,
2013-01-12 00:11:00,31.3,9.8,29.87,SW,225,1.1,1.1,40,0.00,,,0.00,WUHU216HW,2013-01-12 07:11:00,
2013-01-12 00:16:00,31.1,9.6,29.86,SW,225,0.4,1.1,40,0.00,,,0.00,WUHU216HW,2013-01-12 07:16:00,
2013-01-12 00:21:00,30.8,9.8,29.86,SSW,203,0.7,1.3,41,0.00,,,0.00,WUHU216HW,2013-01-12 07:21:00,
2013-01-12 00:26:00,30.6,9.6,29.86,West,270,0.0,1.6,41,0.00,,,0.00,WUHU216HW,2013-01-12 07:26:00,
2013-01-12 00:31:00,30.4,10.0,29.86,North,0,0.4,1.6,42,0.00,,,0.00,WUHU216HW,2013-01-12 07:31:00,
2013-01-12 00:36:00,30.2,9.8,29.86,North,0,0.0,0.4,42,0.00,,,0.00,WUHU216HW,2013-01-12 07:36:00,
2013-01-12 00:41:00,30.1,9.6,29.86,ESE,113,0.0,0.4,42,0.00,,,0.00,WUHU216HW,2013-01-12 07:41:00,
2013-01-12 00:46:00,29.9,9.6,29.85,NNE,23,0.0,1.1,42,0.00,,,0.00,WUHU216HW,2013-01-12 07:46:00,
2013-01-12 00:51:00,29.9,10.0,29.86,North,0,0.0,1.1,43,0.00,,,0.00,WUHU216HW,2013-01-12 07:51:00,
2013-01-12 00:56:00,29.5,9.7,29.86,NW,315,0.0,0.4,43,0.00,,,0.00,WUHU216HW,2013-01-12 07:56:00,
2013-01-12 01:01:00,29.3,9.6,29.85,WSW,248,0.4,0.4,43,0.00,,,0.00,WUHU216HW,2013-01-12 08:01:00,
2013-01-12 01:06:00,29.3,9.6,29.85,SW,225,0.2,1.3,43,0.00,,,0.00,WUHU216HW,2013-01-12 08:06:00,
2013-01-12 01:11:00,29.2,9.4,29.85,WSW,248,0.0,1.8,43,0.00,,,0.00,WUHU216HW,2013-01-12 08:11:00,
2013-01-12 01:16:00,29.2,9.4,29.85,ENE,68,0.4,1.8,43,0.00,,,0.00,WUHU216HW,2013-01-12 08:16:00,
2013-01-12 01:21:00,29.2,9.9,29.85,ENE,68,0.9,1.1,44,0.00,,,0.00,WUHU216HW,2013-01-12 08:21:00,
2013-01-12 01:26:00,29.0,9.7,29.85,SW,225,0.2,1.3,44,0.00,,,0.00,WUHU216HW,2013-01-12 08:26:00,
2013-01-12 01:31:00,28.8,9.5,29.85,SW,225,1.3,2.0,44,0.00,,,0.00,WUHU216HW,2013-01-12 08:31:00,
2013-01-12 01:36:00,28.8,9.5,29.85,SW,225,0.7,2.0,44,0.00,,,0.00,WUHU216HW,2013-01-12 08:36:00,
2013-01-12 01:41:00,28.6,9.9,29.84,SW,225,0.0,1.6,45,0.00,,,0.00,WUHU216HW,2013-01-12 08:41:00,
2013-01-12 01:46:00,28.4,9.7,29.84,NE,45,0.7,0.7,45,0.00,,,0.00,WUHU216HW,2013-01-12 08:46:00,
2013-01-12 01:51:00,28.4,9.7,29.85,East,90,0.4,1.8,45,0.00,,,0.00,WUHU216HW,2013-01-12 08:51:00,
2013-01-12 01:56:00,28.4,10.3,29.85,NW,315,0.9,1.8,46,0.00,,,0.00,WUHU216HW,2013-01-12 08:56:00,
2013-01-12 02:01:00,28.1,9.9,29.85,NNW,338,0.2,1.1,46,0.00,,,0.00,WUHU216HW,2013-01-12 09:01:00,
2013-01-12 02:06:00,27.7,9.6,29.85,WSW,248,1.1,1.1,46,0.00,,,0.00,WUHU216HW,2013-01-12 09:06:00,
2013-01-12 02:11:00,27.4,9.2,29.85,WSW,248,1.3,1.3,46,0.00,,,0.00,WUHU216HW,2013-01-12 09:11:00,
2013-01-12 02:16:00,27.2,9.6,29.85,SW,225,1.3,1.3,47,0.00,,,0.00,WUHU216HW,2013-01-12 09:16:00,
2013-01-12 02:21:00,27.0,9.4,29.85,WSW,248,1.1,1.6,47,0.00,,,0.00,WUHU216HW,2013-01-12 09:21:00,
2013-01-12 02:26:00,27.0,9.8,29.85,WSW,248,0.9,2.0,48,0.00,,,0.00,WUHU216HW,2013-01-12 09:26:00,
2013-01-12 02:31:00,27.0,9.8,29.85,SW,225,0.2,2.0,48,0.00,,,0.00,WUHU216HW,2013-01-12 09:31:00,
2013-01-12 02:36:00,26.8,9.6,29.85,SSW,203,0.2,1.8,48,0.00,,,0.00,WUHU216HW,2013-01-12 09:36:00,
2013-01-12 02:41:00,26.8,9.6,29.85,SW,225,0.4,0.7,48,0.00,,,0.00,WUHU216HW,2013-01-12 09:41:00,
2013-01-12 02:46:00,26.6,9.5,29.86,SW,225,0.4,0.9,48,0.00,,,0.00,WUHU216HW,2013-01-12 09:46:00,
2013-01-12 02:51:00,26.5,9.3,29.85,SSW,203,1.1,1.1,48,0.00,,,0.00,WUHU216HW,2013-01-12 09:51:00,
2013-01-12 02:56:00,26.3,9.2,29.86,South,180,0.2,1.3,48,0.00,,,0.00,WUHU216HW,2013-01-12 09:56:00,
2013-01-12 03:01:00,26.3,9.2,29.86,WSW,248,0.0,1.3,48,0.00,,,0.00,WUHU216HW,2013-01-12 10:01:00,
2013-01-12 03:06:00,26.3,9.2,29.86,SSE,158,0.0,0.9,48,0.00,,,0.00,WUHU216HW,2013-01-12 10:06:00,
2013-01-12 03:11:00,26.3,9.6,29.86,WSW,248,0.0,0.4,49,0.00,,,0.00,WUHU216HW,2013-01-12 10:11:00,
2013-01-12 03:16:00,26.5,9.3,29.86,WNW,293,0.0,1.1,48,0.00,,,0.00,WUHU216HW,2013-01-12 10:16:00,
2013-01-12 03:21:00,26.5,9.8,29.85,NW,315,0.0,1.1,49,0.00,,,0.00,WUHU216HW,2013-01-12 10:21:00,
2013-01-12 03:26:00,26.3,9.6,29.86,SW,225,1.8,2.0,49,0.00,,,0.00,WUHU216HW,2013-01-12 10:26:00,
2013-01-12 03:31:00,26.3,9.6,29.86,WSW,248,1.8,2.7,49,0.00,,,0.00,WUHU216HW,2013-01-12 10:31:00,
2013-01-12 03:36:00,26.3,9.6,29.86,WNW,293,0.4,2.7,49,0.00,,,0.00,WUHU216HW,2013-01-12 10:36:00,
2013-01-12 03:41:00,26.1,9.5,29.86,WSW,248,0.9,1.8,49,0.00,,,0.00,WUHU216HW,2013-01-12 10:41:00,
2013-01-12 03:46:00,25.9,9.3,29.86,WSW,248,0.2,0.9,49,0.00,,,0.00,WUHU216HW,2013-01-12 10:46:00,
2013-01-12 03:51:00,25.6,9.0,29.86,WSW,248,0.4,1.1,49,0.00,,,0.00,WUHU216HW,2013-01-12 10:51:00,
2013-01-12 03:56:00,25.6,9.5,29.86,West,270,0.0,1.1,50,0.00,,,0.00,WUHU216HW,2013-01-12 10:56:00,
2013-01-12 04:01:00,25.4,9.3,29.86,WSW,248,0.4,0.4,50,0.00,,,0.00,WUHU216HW,2013-01-12 11:01:00,
2013-01-12 04:06:00,25.2,9.2,29.86,SW,225,0.2,0.9,50,0.00,,,0.00,WUHU216HW,2013-01-12 11:06:00,
2013-01-12 04:11:00,25.0,9.0,29.87,WSW,248,0.0,0.9,50,0.00,,,0.00,WUHU216HW,2013-01-12 11:11:00,
2013-01-12 04:16:00,25.0,9.0,29.87,SW,225,0.4,0.7,50,0.00,,,0.00,WUHU216HW,2013-01-12 11:16:00,
2013-01-12 04:21:00,24.8,8.8,29.87,WSW,248,1.1,1.3,50,0.00,,,0.00,WUHU216HW,2013-01-12 11:21:00,
2013-01-12 04:26:00,25.2,9.5,29.87,WSW,248,0.4,1.3,51,0.00,,,0.00,WUHU216HW,2013-01-12 11:26:00,
2013-01-12 04:31:00,25.6,9.9,29.86,SW,225,0.7,1.1,51,0.00,,,0.00,WUHU216HW,2013-01-12 11:31:00,
2013-01-12 04:36:00,25.6,9.9,29.86,WSW,248,0.4,1.6,51,0.00,,,0.00,WUHU216HW,2013-01-12 11:36:00,
2013-01-12 04:41:00,25.6,9.9,29.86,SW,225,0.2,1.6,51,0.00,,,0.00,WUHU216HW,2013-01-12 11:41:00,
2013-01-12 04:46:00,25.6,9.9,29.86,SW,225,0.4,0.7,51,0.00,,,0.00,WUHU216HW,2013-01-12 11:46:00,
2013-01-12 04:51:00,25.6,9.9,29.87,SW,225,0.4,0.7,51,0.00,,,0.00,WUHU216HW,2013-01-12 11:51:00,
2013-01-12 04:56:00,25.6,9.9,29.87,WSW,248,0.0,0.7,51,0.00,,,0.00,WUHU216HW,2013-01-12 11:56:00,
2013-01-12 05:01:00,25.6,9.9,29.87,WSW,248,0.0,0.7,51,0.00,,,0.00,WUHU216HW,2013-01-12 12:01:00,
2013-01-12 05:06:00,25.9,10.2,29.87,ENE,68,0.0,0.4,51,0.00,,,0.00,WUHU216HW,2013-01-12 12:06:00,
2013-01-12 05:11:00,26.1,10.4,29.87,ESE,113,0.0,0.4,51,0.00,,,0.00,WUHU216HW,2013-01-12 12:11:00,
2013-01-12 05:16:00,26.1,10.4,29.87,SW,225,0.4,0.4,51,0.00,,,0.00,WUHU216HW,2013-01-12 12:16:00,
2013-01-12 05:21:00,26.1,10.4,29.88,SW,225,0.0,0.4,51,0.00,,,0.00,WUHU216HW,2013-01-12 12:21:00,
2013-01-12 05:26:00,26.1,10.4,29.87,SW,225,0.0,0.4,51,0.00,,,0.00,WUHU216HW,2013-01-12 12:26:00,
2013-01-12 05:31:00,26.1,10.4,29.87,SW,225,0.4,0.4,51,0.00,,,0.00,WUHU216HW,2013-01-12 12:31:00,
2013-01-12 05:36:00,26.3,10.5,29.87,SW,225,0.7,1.1,51,0.00,,,0.00,WUHU216HW,2013-01-12 12:36:00,
2013-01-12 05:41:00,26.3,10.5,29.88,SW,225,0.4,1.1,51,0.00,,,0.00,WUHU216HW,2013-01-12 12:41:00,
2013-01-12 05:46:00,26.3,10.5,29.88,SW,225,0.7,1.1,51,0.00,,,0.00,WUHU216HW,2013-01-12 12:46:00,
2013-01-12 05:51:00,26.3,10.5,29.88,SSW,203,0.7,1.1,51,0.00,,,0.00,WUHU216HW,2013-01-12 12:51:00,
2013-01-12 05:56:00,26.5,10.7,29.88,SW,225,1.1,1.6,51,0.00,,,0.00,WUHU216HW,2013-01-12 12:56:00,
2013-01-12 06:01:00,26.5,10.7,29.89,SSW,203,0.0,1.6,51,0.00,,,0.00,WUHU216HW,2013-01-12 13:01:00,
2013-01-12 06:06:00,26.5,10.3,29.89,SSW,203,0.4,1.3,50,0.00,,,0.00,WUHU216HW,2013-01-12 13:06:00,
2013-01-12 06:11:00,26.3,10.1,29.89,SSE,158,0.4,1.1,50,0.00,,,0.00,WUHU216HW,2013-01-12 13:11:00,
2013-01-12 06:16:00,26.1,10.0,29.89,SSW,203,0.4,1.1,50,0.00,,,0.00,WUHU216HW,2013-01-12 13:16:00,
2013-01-12 06:21:00,26.1,10.0,29.89,SSW,203,0.7,1.1,50,0.00,,,0.00,WUHU216HW,2013-01-12 13:21:00,
2013-01-12 06:26:00,25.9,9.8,29.89,SW,225,1.1,1.6,50,0.00,,,0.00,WUHU216HW,2013-01-12 13:26:00,
2013-01-12 06:31:00,25.7,9.6,29.90,SW,225,1.1,1.8,50,0.00,,,0.00,WUHU216HW,2013-01-12 13:31:00,
2013-01-12 06:36:00,25.6,9.5,29.89,SSW,203,0.7,1.8,50,0.00,,,0.00,WUHU216HW,2013-01-12 13:36:00,
2013-01-12 06:41:00,25.6,9.5,29.90,SSW,203,0.9,1.1,50,0.00,,,0.00,WUHU216HW,2013-01-12 13:41:00,
2013-01-12 06:46:00,25.4,9.3,29.90,SW,225,1.1,1.3,50,0.00,,,0.00,WUHU216HW,2013-01-12 13:46:00,
2013-01-12 06:51:00,25.2,9.2,29.91,South,180,0.9,1.8,50,0.00,,,0.00,WUHU216HW,2013-01-12 13:51:00,
2013-01-12 06:56:00,25.2,9.2,29.91,SSW,203,1.1,1.8,50,0.00,,,0.00,WUHU216HW,2013-01-12 13:56:00,
2013-01-12 07:01:00,25.2,9.5,29.91,SSW,203,2.9,2.9,51,0.00,,,0.00,WUHU216HW,2013-01-12 14:01:00,
2013-01-12 07:06:00,25.4,9.7,29.91,SSW,203,2.2,2.9,51,0.00,,,0.00,WUHU216HW,2013-01-12 14:06:00,
2013-01-12 07:11:00,25.6,9.9,29.92,SW,225,2.5,3.4,51,0.00,,,0.00,WUHU216HW,2013-01-12 14:11:00,
2013-01-12 07:16:00,25.6,9.9,29.92,SW,225,2.2,3.4,51,0.00,,,0.00,WUHU216HW,2013-01-12 14:16:00,
2013-01-12 07:21:00,25.6,9.9,29.92,SW,225,2.5,2.9,51,0.00,,,0.00,WUHU216HW,2013-01-12 14:21:00,
2013-01-12 07:26:00,25.6,9.9,29.92,WSW,248,3.6,3.8,51,0.00,,,0.00,WUHU216HW,2013-01-12 14:26:00,
2013-01-12 07:31:00,25.6,9.9,29.93,SW,225,3.4,3.8,51,0.00,,,0.00,WUHU216HW,2013-01-12 14:31:00,
2013-01-12 07:36:00,25.6,9.9,29.94,SW,225,2.2,4.0,51,0.00,,,0.00,WUHU216HW,2013-01-12 14:36:00,
2013-01-12 07:41:00,25.6,10.3,29.94,WSW,248,3.6,5.4,52,0.00,,,0.00,WUHU216HW,2013-01-12 14:41:00,
2013-01-12 07:46:00,25.7,10.4,29.94,SW,225,3.4,5.4,52,0.00,,,0.00,WUHU216HW,2013-01-12 14:46:00,
2013-01-12 07:51:00,25.9,10.6,29.95,SSW,203,2.9,5.4,52,0.00,,,0.00,WUHU216HW,2013-01-12 14:51:00,
2013-01-12 07:56:00,26.1,10.8,29.95,SSW,203,2.5,4.5,52,0.00,,,0.00,WUHU216HW,2013-01-12 14:56:00,
2013-01-12 08:01:00,26.3,11.0,29.95,South,180,3.4,4.0,52,0.00,,,0.00,WUHU216HW,2013-01-12 15:01:00,
2013-01-12 08:06:00,26.6,11.3,29.95,SSW,203,2.2,3.4,52,0.00,,,0.00,WUHU216HW,2013-01-12 15:06:00,
2013-01-12 08:11:00,27.0,11.6,29.95,South,180,2.0,3.4,52,0.00,,,0.00,WUHU216HW,2013-01-12 15:11:00,
2013-01-12 08:16:00,27.4,12.0,29.96,SW,225,2.5,3.4,52,0.00,,,0.00,WUHU216HW,2013-01-12 15:16:00,
2013-01-12 08:21:00,27.7,12.0,29.95,SW,225,3.1,4.7,51,0.00,,,0.00,WUHU216HW,2013-01-12 15:21:00,
2013-01-12 08:26:00,28.1,12.3,29.95,WSW,248,1.8,5.6,51,0.00,,,0.00,WUHU216HW,2013-01-12 15:26:00,
2013-01-12 08:31:00,28.4,12.2,29.96,SW,225,0.0,5.6,50,0.00,,,0.00,WUHU216HW,2013-01-12 15:31:00,
2013-01-12 08:36:00,28.8,13.0,29.96,WSW,248,1.8,2.5,51,0.00,,,0.00,WUHU216HW,2013-01-12 15:36:00,
2013-01-12 08:41:00,29.2,12.9,29.96,WSW,248,2.0,2.2,50,0.00,,,0.00,WUHU216HW,2013-01-12 15:41:00,
2013-01-12 08:46:00,29.5,13.2,29.97,SW,225,2.7,2.7,50,0.00,,,0.00,WUHU216HW,2013-01-12 15:46:00,
2013-01-12 08:51:00,29.9,13.1,29.97,SW,225,2.5,4.0,49,0.00,,,0.00,WUHU216HW,2013-01-12 15:51:00,
2013-01-12 08:56:00,30.6,12.7,29.97,WNW,293,0.9,4.0,47,0.00,,,0.00,WUHU216HW,2013-01-12 15:56:00,
2013-01-12 09:01:00,31.1,13.1,29.96,WNW,293,1.1,4.0,47,0.00,,,0.00,WUHU216HW,2013-01-12 16:01:00,
2013-01-12 09:06:00,31.5,12.5,29.96,WSW,248,1.8,5.1,45,0.00,,,0.00,WUHU216HW,2013-01-12 16:06:00,
2013-01-12 09:11:00,32.0,13.0,29.96,SW,225,4.0,5.1,45,0.00,,,0.00,WUHU216HW,2013-01-12 16:11:00,
2013-01-12 09:16:00,32.4,12.2,29.96,WSW,248,1.1,5.6,43,0.00,,,0.00,WUHU216HW,2013-01-12 16:16:00,
2013-01-12 09:21:00,32.4,12.8,29.95,ESE,113,0.4,5.6,44,0.00,,,0.00,WUHU216HW,2013-01-12 16:21:00,
2013-01-12 09:26:00,32.8,13.2,29.96,North,0,1.6,1.6,44,0.00,,,0.00,WUHU216HW,2013-01-12 16:26:00,
2013-01-12 09:31:00,33.1,13.4,29.97,North,0,0.7,2.0,44,0.00,,,0.00,WUHU216HW,2013-01-12 16:31:00,
2013-01-12 09:36:00,33.7,13.4,29.96,NNW,338,2.2,2.2,43,0.00,,,0.00,WUHU216HW,2013-01-12 16:36:00,
2013-01-12 09:41:00,34.2,13.4,29.96,North,0,1.1,2.9,42,0.00,,,0.00,WUHU216HW,2013-01-12 16:41:00,
2013-01-12 09:46:00,34.7,13.9,29.96,NW,315,1.8,2.9,42,0.00,,,0.00,WUHU216HW,2013-01-12 16:46:00,
2013-01-12 09:51:00,34.9,13.6,29.95,WNW,293,2.9,3.6,41,0.00,,,0.00,WUHU216HW,2013-01-12 16:51:00,
2013-01-12 09:56:00,35.5,14.1,29.95,West,270,3.6,3.6,41,0.00,,,0.00,WUHU216HW,2013-01-12 16:56:00,
2013-01-12 10:01:00,35.8,13.9,29.95,WSW,248,4.3,4.3,40,0.00,,,0.00,WUHU216HW,2013-01-12 17:01:00,
2013-01-12 10:06:00,36.2,13.5,29.95,NW,315,3.6,4.3,39,0.00,,,0.00,WUHU216HW,2013-01-12 17:06:00,
2013-01-12 10:11:00,36.4,12.4,29.95,West,270,6.5,6.5,37,0.00,,,0.00,WUHU216HW,2013-01-12 17:11:00,
2013-01-12 10:16:00,36.9,12.3,29.94,NNW,338,1.8,6.9,36,0.00,,,0.00,WUHU216HW,2013-01-12 17:16:00,
2013-01-12 10:21:00,37.1,12.4,29.94,West,270,3.4,6.9,36,0.00,,,0.00,WUHU216HW,2013-01-12 17:21:00,
2013-01-12 10:26:00,37.6,12.3,29.94,West,270,4.3,7.2,35,0.00,,,0.00,WUHU216HW,2013-01-12 17:26:00,
2013-01-12 10:31:00,37.8,12.4,29.93,NW,315,2.5,7.2,35,0.00,,,0.00,WUHU216HW,2013-01-12 17:31:00,
2013-01-12 10:36:00,38.2,11.4,29.93,WNW,293,4.9,6.3,33,0.00,,,0.00,WUHU216HW,2013-01-12 17:36:00,
2013-01-12 10:41:00,38.3,10.9,29.93,West,270,4.3,10.3,32,0.00,,,0.00,WUHU216HW,2013-01-12 17:41:00,
2013-01-12 10:46:00,38.5,11.1,29.93,NNW,338,4.3,10.3,32,0.00,,,0.00,WUHU216HW,2013-01-12 17:46:00,
2013-01-12 10:51:00,38.9,12.1,29.93,NW,315,2.5,6.9,33,0.00,,,0.00,WUHU216HW,2013-01-12 17:51:00,
2013-01-12 10:56:00,39.2,11.1,29.92,West,270,5.4,6.0,31,0.00,,,0.00,WUHU216HW,2013-01-12 17:56:00,
2013-01-12 11:01:00,39.2,11.1,29.92,NNW,338,4.9,6.9,31,0.00,,,0.00,WUHU216HW,2013-01-12 18:01:00,
2013-01-12 11:06:00,39.6,10.8,29.92,West,270,4.0,8.7,30,0.00,,,0.00,WUHU216HW,2013-01-12 18:06:00,
2013-01-12 11:11:00,39.6,11.4,29.92,West,270,4.5,8.7,31,0.00,,,0.00,WUHU216HW,2013-01-12 18:11:00,
2013-01-12 11:16:00,40.0,11.1,29.92,WSW,248,5.6,8.1,30,0.00,,,0.00,WUHU216HW,2013-01-12 18:16:00,
2013-01-12 11:21:00,40.0,11.1,29.92,WSW,248,4.9,9.4,30,0.00,,,0.00,WUHU216HW,2013-01-12 18:21:00,
2013-01-12 11:26:00,40.1,11.3,29.91,WNW,293,9.6,9.8,30,0.00,,,0.00,WUHU216HW,2013-01-12 18:26:00,
2013-01-12 11:31:00,40.3,11.4,29.91,West,270,4.0,10.5,30,0.00,,,0.00,WUHU216HW,2013-01-12 18:31:00,
2013-01-12 11:36:00,40.7,12.4,29.91,West,270,7.2,10.5,31,0.00,,,0.00,WUHU216HW,2013-01-12 18:36:00,
2013-01-12 11:41:00,41.0,12.1,29.91,WSW,248,6.5,9.6,30,0.00,,,0.00,WUHU216HW,2013-01-12 18:41:00,
2013-01-12 11:46:00,41.4,12.3,29.91,West,270,12.5,12.5,30,0.00,,,0.00,WUHU216HW,2013-01-12 18:46:00,
2013-01-12 11:51:00,41.4,12.3,29.91,West,270,7.8,12.5,30,0.00,,,0.00,WUHU216HW,2013-01-12 18:51:00,
2013-01-12 11:56:00,41.8,11.7,29.91,SW,225,9.2,12.5,29,0.00,,,0.00,WUHU216HW,2013-01-12 18:56:00,
2013-01-12 12:01:00,41.9,11.9,29.91,SW,225,12.1,15.7,29,0.00,,,0.00,WUHU216HW,2013-01-12 19:01:00,
2013-01-12 12:06:00,41.9,11.0,29.91,SW,225,5.8,15.7,28,0.00,,,0.00,WUHU216HW,2013-01-12 19:06:00,
2013-01-12 12:11:00,41.9,11.0,29.91,SW,225,5.4,15.0,28,0.00,,,0.00,WUHU216HW,2013-01-12 19:11:00,
2013-01-12 12:16:00,42.1,11.2,29.91,WSW,248,6.9,15.0,28,0.00,,,0.00,WUHU216HW,2013-01-12 19:16:00,
2013-01-12 12:21:00,42.1,10.3,29.90,SW,225,5.8,10.7,27,0.00,,,0.00,WUHU216HW,2013-01-12 19:21:00,
2013-01-12 12:26:00,42.3,10.4,29.90,SW,225,14.3,15.0,27,0.00,,,0.00,WUHU216HW,2013-01-12 19:26:00,
2013-01-12 12:31:00,42.3,10.4,29.90,SW,225,6.3,15.0,27,0.00,,,0.00,WUHU216HW,2013-01-12 19:31:00,
2013-01-12 12:36:00,42.1,10.3,29.90,WSW,248,13.6,14.3,27,0.00,,,0.00,WUHU216HW,2013-01-12 19:36:00,
2013-01-12 12:41:00,42.3,10.4,29.90,SW,225,11.9,16.8,27,0.00,,,0.00,WUHU216HW,2013-01-12 19:41:00,
2013-01-12 12:46:00,42.5,10.5,29.90,SW,225,6.9,16.8,27,0.00,,,0.00,WUHU216HW,2013-01-12 19:46:00,
2013-01-12 12:51:00,42.3,8.6,29.90,WNW,293,7.6,13.2,25,0.00,,,0.00,WUHU216HW,2013-01-12 19:51:00,
2013-01-12 12:56:00,42.7,9.7,29.90,West,270,9.6,13.6,26,0.00,,,0.00,WUHU216HW,2013-01-12 19:56:00,
2013-01-12 13:01:00,42.7,8.8,29.89,West,270,8.3,14.5,25,0.00,,,0.00,WUHU216HW,2013-01-12 20:01:00,
2013-01-12 13:06:00,42.5,8.7,29.89,SW,225,9.2,14.5,25,0.00,,,0.00,WUHU216HW,2013-01-12 20:06:00,
2013-01-12 13:11:00,42.5,8.7,29.89,SW,225,9.4,14.1,25,0.00,,,0.00,WUHU216HW,2013-01-12 20:11:00,
2013-01-12 13:16:00,42.7,8.8,29.89,West,270,5.8,12.8,25,0.00,,,0.00,WUHU216HW,2013-01-12 20:16:00,
2013-01-12 13:21:00,42.8,9.0,29.89,SSW,203,9.8,12.8,25,0.00,,,0.00,WUHU216HW,2013-01-12 20:21:00,
2013-01-12 13:26:00,43.2,9.4,29.89,SW,225,14.8,14.8,25,0.00,,,0.00,WUHU216HW,2013-01-12 20:26:00,
2013-01-12 13:31:00,42.7,7.9,29.89,West,270,6.5,15.7,24,0.00,,,0.00,WUHU216HW,2013-01-12 20:31:00,
2013-01-12 13:36:00,42.8,8.1,29.89,SW,225,6.9,15.7,24,0.00,,,0.00,WUHU216HW,2013-01-12 20:36:00,
2013-01-12 13:41:00,42.8,9.0,29.89,West,270,7.2,12.3,25,0.00,,,0.00,WUHU216HW,2013-01-12 20:41:00,
2013-01-12 13:46:00,42.8,9.0,29.89,SSW,203,12.8,16.6,25,0.00,,,0.00,WUHU216HW,2013-01-12 20:46:00,
2013-01-12 13:51:00,42.8,9.0,29.89,SSW,203,6.7,16.6,25,0.00,,,0.00,WUHU216HW,2013-01-12 20:51:00,
2013-01-12 13:56:00,42.8,8.1,29.89,WNW,293,10.3,15.4,24,0.00,,,0.00,WUHU216HW,2013-01-12 20:56:00,
2013-01-12 14:01:00,43.0,8.3,29.89,SW,225,11.0,15.4,24,0.00,,,0.00,WUHU216HW,2013-01-12 21:01:00,
2013-01-12 14:06:00,42.8,9.0,29.88,SSW,203,4.7,11.0,25,0.00,,,0.00,WUHU216HW,2013-01-12 21:06:00,
2013-01-12 14:11:00,43.0,9.2,29.88,WSW,248,9.4,11.0,25,0.00,,,0.00,WUHU216HW,2013-01-12 21:11:00,
2013-01-12 14:16:00,43.6,9.6,29.88,WSW,248,6.0,10.1,25,0.00,,,0.00,WUHU216HW,2013-01-12 21:16:00,
2013-01-12 14:21:00,43.2,8.5,29.88,West,270,10.5,15.2,24,0.00,,,0.00,WUHU216HW,2013-01-12 21:21:00,
2013-01-12 14:26:00,43.2,9.4,29.88,West,270,3.6,15.2,25,0.00,,,0.00,WUHU216HW,2013-01-12 21:26:00,
2013-01-12 14:31:00,43.2,9.4,29.88,WSW,248,6.9,11.0,25,0.00,,,0.00,WUHU216HW,2013-01-12 21:31:00,
2013-01-12 14:36:00,42.8,8.1,29.88,WNW,293,3.4,11.6,24,0.00,,,0.00,WUHU216HW,2013-01-12 21:36:00,
2013-01-12 14:41:00,42.8,9.0,29.88,WSW,248,2.0,11.6,25,0.00,,,0.00,WUHU216HW,2013-01-12 21:41:00,
2013-01-12 14:46:00,42.8,9.0,29.88,WSW,248,3.8,12.1,25,0.00,,,0.00,WUHU216HW,2013-01-12 21:46:00,
2013-01-12 14:51:00,42.8,9.0,29.88,West,270,8.5,12.1,25,0.00,,,0.00,WUHU216HW,2013-01-12 21:51:00,
2013-01-12 14:56:00,43.2,9.4,29.88,West,270,7.2,11.2,25,0.00,,,0.00,WUHU216HW,2013-01-12 21:56:00,
2013-01-12 15:01:00,43.6,8.7,29.88,North,0,6.9,12.3,24,0.00,,,0.00,WUHU216HW,2013-01-12 22:01:00,
2013-01-12 15:06:00,43.6,8.7,29.88,WNW,293,9.8,13.0,24,0.00,,,0.00,WUHU216HW,2013-01-12 22:06:00,
2013-01-12 15:11:00,43.6,8.7,29.87,West,270,9.2,15.0,24,0.00,,,0.00,WUHU216HW,2013-01-12 22:11:00,
2013-01-12 15:16:00,43.7,8.9,29.87,West,270,7.4,15.0,24,0.00,,,0.00,WUHU216HW,2013-01-12 22:16:00,
2013-01-12 15:21:00,43.7,8.9,29.87,West,270,3.8,14.3,24,0.00,,,0.00,WUHU216HW,2013-01-12 22:21:00,
2013-01-12 15:26:00,43.9,9.1,29.87,WNW,293,4.7,12.3,24,0.00,,,0.00,WUHU216HW,2013-01-12 22:26:00,
2013-01-12 15:31:00,43.6,9.6,29.87,West,270,11.0,15.2,25,0.00,,,0.00,WUHU216HW,2013-01-12 22:31:00,
2013-01-12 15:36:00,43.0,9.2,29.88,West,270,6.9,15.4,25,0.00,,,0.00,WUHU216HW,2013-01-12 22:36:00,
2013-01-12 15:41:00,42.8,9.0,29.88,SSW,203,8.5,15.4,25,0.00,,,0.00,WUHU216HW,2013-01-12 22:41:00,
2013-01-12 15:46:00,42.5,7.8,29.88,WNW,293,8.1,12.5,24,0.00,,,0.00,WUHU216HW,2013-01-12 22:46:00,
2013-01-12 15:51:00,42.1,9.4,29.89,NW,315,13.4,15.7,26,0.00,,,0.00,WUHU216HW,2013-01-12 22:51:00,
2013-01-12 15:56:00,41.6,10.7,29.89,West,270,12.5,17.4,28,0.00,,,0.00,WUHU216HW,2013-01-12 22:56:00,
2013-01-12 16:01:00,41.0,11.2,29.89,West,270,13.9,17.4,29,0.00,,,0.00,WUHU216HW,2013-01-12 23:01:00,
2013-01-12 16:06:00,40.7,11.7,29.89,WSW,248,14.3,15.4,30,0.00,,,0.00,WUHU216HW,2013-01-12 23:06:00,
2013-01-12 16:11:00,40.3,12.1,29.90,SW,225,11.0,15.4,31,0.00,,,0.00,WUHU216HW,2013-01-12 23:11:00,
2013-01-12 16:16:00,40.1,11.9,29.90,SW,225,11.4,16.3,31,0.00,,,0.00,WUHU216HW,2013-01-12 23:16:00,
2013-01-12 16:21:00,40.0,12.4,29.90,WNW,293,10.7,16.3,32,0.00,,,0.00,WUHU216HW,2013-01-12 23:21:00,
2013-01-12 16:26:00,39.6,12.1,29.90,WNW,293,8.5,14.5,32,0.00,,,0.00,WUHU216HW,2013-01-12 23:26:00,
2013-01-12 16:31:00,40.0,11.7,29.90,NW,315,6.5,14.5,31,0.00,,,0.00,WUHU216HW,2013-01-12 23:31:00,
2013-01-12 16:36:00,39.8,11.6,29.90,NW,315,4.7,13.9,31,0.00,,,0.00,WUHU216HW,2013-01-12 23:36:00,
2013-01-12 16:41:00,40.0,11.1,29.91,WNW,293,8.7,13.9,30,0.00,,,0.00,WUHU216HW,2013-01-12 23:41:00,
2013-01-12 16:46:00,39.8,11.6,29.91,West,270,13.9,16.8,31,0.00,,,0.00,WUHU216HW,2013-01-12 23:46:00,
2013-01-12 16:51:00,39.2,11.1,29.91,West,270,9.8,16.8,31,0.00,,,0.00,WUHU216HW,2013-01-12 23:51:00,
2013-01-12 16:56:00,39.1,11.6,29.91,West,270,5.4,13.4,32,0.00,,,0.00,WUHU216HW,2013-01-12 23:56:00,
2013-01-12 17:01:00,38.7,11.3,29.91,NW,315,5.4,11.9,32,0.00,,,0.00,WUHU216HW,2013-01-13 00:01:00,
2013-01-12 17:06:00,38.5,11.1,29.91,WNW,293,6.3,11.9,32,0.00,,,0.00,WUHU216HW,2013-01-13 00:06:00,
2013-01-12 17:11:00,38.2,10.8,29.91,WSW,248,12.1,13.4,32,0.00,,,0.00,WUHU216HW,2013-01-13 00:11:00,
2013-01-12 17:16:00,38.0,10.6,29.92,NNW,338,3.4,13.4,32,0.00,,,0.00,WUHU216HW,2013-01-13 00:16:00,
2013-01-12 17:21:00,37.8,10.4,29.92,WNW,293,7.8,12.1,32,0.00,,,0.00,WUHU216HW,2013-01-13 00:21:00,
2013-01-12 17:26:00,37.8,9.8,29.92,NNW,338,8.5,10.5,31,0.00,,,0.00,WUHU216HW,2013-01-13 00:26:00,
2013-01-12 17:31:00,37.6,9.6,29.92,NW,315,3.4,10.5,31,0.00,,,0.00,WUHU216HW,2013-01-13 00:31:00,
2013-01-12 17:36:00,37.4,9.5,29.92,WNW,293,7.4,8.5,31,0.00,,,0.00,WUHU216HW,2013-01-13 00:36:00,
2013-01-12 17:41:00,37.1,9.2,29.92,WNW,293,9.8,9.8,31,0.00,,,0.00,WUHU216HW,2013-01-13 00:41:00,
2013-01-12 17:46:00,37.1,9.2,29.92,WNW,293,3.8,9.8,31,0.00,,,0.00,WUHU216HW,2013-01-13 00:46:00,
2013-01-12 17:51:00,36.9,9.0,29.92,WNW,293,5.4,9.8,31,0.00,,,0.00,WUHU216HW,2013-01-13 00:51:00,
2013-01-12 17:56:00,36.7,9.5,29.93,WNW,293,3.4,8.5,32,0.00,,,0.00,WUHU216HW,2013-01-13 00:56:00,
2013-01-12 18:01:00,36.5,9.3,29.93,NNW,338,3.6,6.3,32,0.00,,,0.00,WUHU216HW,2013-01-13 01:01:00,
2013-01-12 18:06:00,36.4,9.2,29.93,North,0,4.7,5.8,32,0.00,,,0.00,WUHU216HW,2013-01-13 01:06:00,
2013-01-12 18:11:00,36.2,9.0,29.94,North,0,2.5,6.0,32,0.00,,,0.00,WUHU216HW,2013-01-13 01:11:00,
2013-01-12 18:16:00,36.0,8.8,29.94,WNW,293,1.8,6.0,32,0.00,,,0.00,WUHU216HW,2013-01-13 01:16:00,
2013-01-12 18:21:00,35.8,8.6,29.94,NW,315,2.9,4.3,32,0.00,,,0.00,WUHU216HW,2013-01-13 01:21:00,
2013-01-12 18:26:00,35.6,8.5,29.94,WSW,248,1.1,4.0,32,0.00,,,0.00,WUHU216HW,2013-01-13 01:26:00,
2013-01-12 18:31:00,35.5,8.4,29.95,West,270,2.5,2.9,32,0.00,,,0.00,WUHU216HW,2013-01-13 01:31:00,
2013-01-12 18:36:00,35.3,8.8,29.95,NNW,338,2.0,3.4,33,0.00,,,0.00,WUHU216HW,2013-01-13 01:36:00,
2013-01-12 18:41:00,35.1,8.7,29.95,NNW,338,2.5,3.4,33,0.00,,,0.00,WUHU216HW,2013-01-13 01:41:00,
2013-01-12 18:46:00,34.9,8.6,29.95,West,270,2.0,5.6,33,0.00,,,0.00,WUHU216HW,2013-01-13 01:46:00,
2013-01-12 18:51:00,34.7,9.0,29.95,West,270,2.9,5.6,34,0.00,,,0.00,WUHU216HW,2013-01-13 01:51:00,
2013-01-12 18:56:00,34.6,9.6,29.95,West,270,2.5,7.8,35,0.00,,,0.00,WUHU216HW,2013-01-13 01:56:00,
2013-01-12 19:01:00,34.2,9.2,29.94,WNW,293,2.9,7.8,35,0.00,,,0.00,WUHU216HW,2013-01-13 02:01:00,
2013-01-12 19:06:00,34.0,9.1,29.95,West,270,2.7,5.4,35,0.00,,,0.00,WUHU216HW,2013-01-13 02:06:00,
2013-01-12 19:11:00,33.8,8.9,29.95,WNW,293,3.4,5.6,35,0.00,,,0.00,WUHU216HW,2013-01-13 02:11:00,
2013-01-12 19:16:00,33.7,8.7,29.95,WSW,248,4.3,6.9,35,0.00,,,0.00,WUHU216HW,2013-01-13 02:16:00,
2013-01-12 19:21:00,33.5,8.6,29.95,NW,315,2.0,11.6,35,0.00,,,0.00,WUHU216HW,2013-01-13 02:21:00,
2013-01-12 19:26:00,33.5,8.6,29.95,WSW,248,6.9,13.9,35,0.00,,,0.00,WUHU216HW,2013-01-13 02:26:00,
2013-01-12 19:31:00,33.5,8.6,29.96,WNW,293,9.2,13.9,35,0.00,,,0.00,WUHU216HW,2013-01-13 02:31:00,
2013-01-12 19:36:00,33.5,8.6,29.96,West,270,11.4,12.3,35,0.00,,,0.00,WUHU216HW,2013-01-13 02:36:00,
2013-01-12 19:41:00,33.3,8.5,29.96,WNW,293,7.8,12.3,35,0.00,,,0.00,WUHU216HW,2013-01-13 02:41:00,
2013-01-12 19:46:00,33.1,8.9,29.97,WNW,293,5.8,11.4,36,0.00,,,0.00,WUHU216HW,2013-01-13 02:46:00,
2013-01-12 19:51:00,32.9,8.7,29.97,WNW,293,6.7,11.2,36,0.00,,,0.00,WUHU216HW,2013-01-13 02:51:00,
2013-01-12 19:56:00,32.8,8.6,29.97,West,270,7.8,12.5,36,0.00,,,0.00,WUHU216HW,2013-01-13 02:56:00,
2013-01-12 20:01:00,32.8,8.6,29.98,WNW,293,6.3,12.5,36,0.00,,,0.00,WUHU216HW,2013-01-13 03:01:00,
2013-01-12 20:06:00,32.4,8.3,29.98,NW,315,5.1,9.2,36,0.00,,,0.00,WUHU216HW,2013-01-13 03:06:00,
2013-01-12 20:12:00,32.2,8.7,29.98,WNW,293,1.8,6.3,37,0.00,,,0.00,WUHU216HW,2013-01-13 03:12:00,
2013-01-12 20:17:00,32.0,8.6,29.99,West,270,2.5,5.8,37,0.00,,,0.00,WUHU216HW,2013-01-13 03:17:00,
2013-01-12 20:22:00,31.7,8.2,29.99,WSW,248,2.7,4.9,37,0.00,,,0.00,WUHU216HW,2013-01-13 03:22:00,
2013-01-12 20:27:00,31.5,8.1,29.99,West,270,2.7,4.7,37,0.00,,,0.00,WUHU216HW,2013-01-13 03:27:00,
2013-01-12 20:32:00,31.1,7.7,29.99,West,270,1.6,3.8,37,0.00,,,0.00,WUHU216HW,2013-01-13 03:32:00,
2013-01-12 20:37:00,31.0,7.6,29.99,WSW,248,2.2,3.8,37,0.00,,,0.00,WUHU216HW,2013-01-13 03:37:00,
2013-01-12 20:42:00,30.6,7.3,30.00,West,270,3.4,3.4,37,0.00,,,0.00,WUHU216HW,2013-01-13 03:42:00,
2013-01-12 20:47:00,30.2,7.6,30.00,WSW,248,2.0,3.4,38,0.00,,,0.00,WUHU216HW,2013-01-13 03:47:00,
2013-01-12 20:52:00,30.1,7.4,29.99,WSW,248,3.1,3.8,38,0.00,,,0.00,WUHU216HW,2013-01-13 03:52:00,
2013-01-12 20:57:00,29.9,7.2,29.99,WSW,248,3.4,4.7,38,0.00,,,0.00,WUHU216HW,2013-01-13 03:57:00,
2013-01-12 21:02:00,29.7,7.8,29.99,WSW,248,2.0,4.7,39,0.00,,,0.00,WUHU216HW,2013-01-13 04:02:00,
2013-01-12 21:07:00,29.5,7.6,29.99,West,270,3.1,4.0,39,0.00,,,0.00,WUHU216HW,2013-01-13 04:07:00,
2013-01-12 21:12:00,29.3,7.4,30.00,WNW,293,1.1,4.5,39,0.00,,,0.00,WUHU216HW,2013-01-13 04:12:00,
2013-01-12 21:17:00,29.2,7.2,30.00,WNW,293,1.3,4.5,39,0.00,,,0.00,WUHU216HW,2013-01-13 04:17:00,
2013-01-12 21:22:00,28.8,6.9,30.00,NW,315,1.1,2.5,39,0.00,,,0.00,WUHU216HW,2013-01-13 04:22:00,
2013-01-12 21:27:00,28.4,6.6,30.00,WNW,293,0.4,2.2,39,0.00,,,0.00,WUHU216HW,2013-01-13 04:27:00,
2013-01-12 21:32:00,28.3,6.4,30.00,West,270,1.8,2.5,39,0.00,,,0.00,WUHU216HW,2013-01-13 04:32:00,
2013-01-12 21:37:00,28.1,6.2,30.00,West,270,0.4,2.5,39,0.00,,,0.00,WUHU216HW,2013-01-13 04:37:00,
2013-01-12 21:42:00,27.7,6.0,30.00,WNW,293,0.4,1.8,39,0.00,,,0.00,WUHU216HW,2013-01-13 04:42:00,
2013-01-12 21:47:00,27.7,6.0,30.01,WNW,293,0.0,1.6,39,0.00,,,0.00,WUHU216HW,2013-01-13 04:47:00,
2013-01-12 21:52:00,27.4,6.2,30.01,WSW,248,0.0,1.1,40,0.00,,,0.00,WUHU216HW,2013-01-13 04:52:00,
2013-01-12 21:57:00,27.2,6.0,30.01,SE,135,0.4,0.4,40,0.00,,,0.00,WUHU216HW,2013-01-13 04:57:00,
2013-01-12 22:00:00,27.0,6.0,30.01,SE,135,0.0,0.4,40,0.00,,,0.00,WUHU216HW,2013-01-13 05:00:00,
2013-01-12 22:01:00,27.0,6.0,30.01,SE,135,0.4,0.4,40,0.00,,,0.00,WUHU216HW,2013-01-13 05:01:00,
2013-01-12 22:06:00,26.8,5.8,30.01,SE,135,0.4,0.7,40,0.00,,,0.00,WUHU216HW,2013-01-13 05:06:00,
2013-01-12 22:11:00,26.6,5.6,30.01,SW,225,0.9,0.9,40,0.00,,,0.00,WUHU216HW,2013-01-13 05:11:00,
2013-01-12 22:16:00,26.3,5.8,30.01,WSW,248,0.4,1.1,41,0.00,,,0.00,WUHU216HW,2013-01-13 05:16:00,
2013-01-12 22:21:00,25.9,5.4,30.02,WSW,248,1.3,1.8,41,0.00,,,0.00,WUHU216HW,2013-01-13 05:21:00,
2013-01-12 22:26:00,25.6,5.6,30.02,SW,225,2.5,2.5,42,0.00,,,0.00,WUHU216HW,2013-01-13 05:26:00,
2013-01-12 22:31:00,25.4,6.0,30.02,WSW,248,2.0,2.5,43,0.00,,,0.00,WUHU216HW,2013-01-13 05:31:00,
2013-01-12 22:36:00,25.0,6.0,30.02,West,270,1.8,2.7,44,0.00,,,0.00,WUHU216HW,2013-01-13 05:36:00,
2013-01-12 22:41:00,24.8,6.0,30.02,WSW,248,1.3,2.7,44,0.00,,,0.00,WUHU216HW,2013-01-13 05:41:00,
2013-01-12 22:46:00,24.8,6.0,30.02,WSW,248,2.5,3.4,44,0.00,,,0.00,WUHU216HW,2013-01-13 05:46:00,
2013-01-12 22:51:00,25.2,6.2,30.02,SW,225,2.5,3.4,44,0.00,,,0.00,WUHU216HW,2013-01-13 05:51:00,
2013-01-12 22:56:00,25.4,6.4,30.02,WNW,293,2.7,3.4,44,0.00,,,0.00,WUHU216HW,2013-01-13 05:56:00,
2013-01-12 23:01:00,25.4,6.4,30.02,WSW,248,2.9,4.0,44,0.00,,,0.00,WUHU216HW,2013-01-13 06:01:00,
2013-01-12 23:06:00,25.6,6.6,30.02,WSW,248,3.4,4.0,44,0.00,,,0.00,WUHU216HW,2013-01-13 06:06:00,
2013-01-12 23:11:00,25.6,6.6,30.02,West,270,2.7,3.6,44,0.00,,,0.00,WUHU216HW,2013-01-13 06:11:00,
2013-01-12 23:16:00,25.6,6.6,30.02,SW,225,3.6,4.0,44,0.00,,,0.00,WUHU216HW,2013-01-13 06:16:00,
2013-01-12 23:21:00,25.4,6.4,30.03,WSW,248,4.0,4.7,44,0.00,,,0.00,WUHU216HW,2013-01-13 06:21:00,
2013-01-12 23:26:00,25.4,6.4,30.03,WNW,293,3.6,6.9,44,0.00,,,0.00,WUHU216HW,2013-01-13 06:26:00,
2013-01-12 23:31:00,25.4,6.4,30.03,NW,315,1.1,6.9,44,0.00,,,0.00,WUHU216HW,2013-01-13 06:31:00,
2013-01-12 23:36:00,25.2,6.2,30.03,WNW,293,2.2,5.4,44,0.00,,,0.00,WUHU216HW,2013-01-13 06:36:00,
2013-01-12 23:41:00,25.2,6.2,30.03,West,270,2.7,3.4,44,0.00,,,0.00,WUHU216HW,2013-01-13 06:41:00,
2013-01-12 23:46:00,25.0,6.0,30.03,West,270,2.5,3.4,44,0.00,,,0.00,WUHU216HW,2013-01-13 06:46:00,
2013-01-12 23:51:00,24.8,6.0,30.03,West,270,0.4,3.4,44,0.00,,,0.00,WUHU216HW,2013-01-13 06:51:00,
2013-01-12 23:56:00,24.8,5.4,30.03,WSW,248,0.4,2.5,43,0.00,,,0.00,WUHU216HW,2013-01-13 06:56:00,